DW1814 Weather Reports


Display with metric or nautical units.
time (UTC)temp
F
wind
direction
speed
MPH
gust
MPH
rain 1hr
in
rain 24hr
in
rain mn
in
humidity
%
barometer
mb
20260507090610 31 48 2.0 2.0 0.00 0.00 0.00 88 1013.9
20260507090107 31 85 2.0 2.0 0.00 0.00 0.00 89 1013.9
20260507085604 31 89 1.0 2.0 0.00 0.00 0.00 88 1013.7
20260507085101 31 77 1.0 2.0 0.00 0.00 0.00 88 1014.1
20260507084557 31 72 2.0 2.0 0.00 0.00 0.00 88 1013.9
20260507084054 31 59 2.0 2.0 0.00 0.00 0.00 88 1013.9
20260507083550 31 68 1.0 2.0 0.00 0.00 0.00 87 1013.8
20260507083048 31 70 1.0 2.0 0.00 0.00 0.00 87 1014.0
20260507082544 31 89 1.0 2.0 0.00 0.00 0.00 87 1013.8
20260507082041 31 57 1.0 1.0 0.00 0.00 0.00 87 1013.9
20260507081536 31 86 1.0 2.0 0.00 0.00 0.00 86 1013.7
20260507081034 31 80 1.0 2.0 0.00 0.00 0.00 86 1013.8
20260507080529 31 66 2.0 2.0 0.00 0.00 0.00 86 1014.0
20260507080026 31 63 1.0 2.0 0.00 0.00 0.00 85 1013.9
20260507075521 31 58 2.0 2.0 0.00 0.00 0.00 84 1014.0
20260507075018 32 67 2.0 2.0 0.00 0.00 0.00 83 1014.0
20260507074515 32 65 1.0 2.0 0.00 0.00 0.00 83 1014.1
20260507074014 32 75 2.0 2.0 0.00 0.00 0.00 83 1014.0
20260507073509 32 77 2.0 2.0 0.00 0.00 0.00 83 1014.2
20260507073006 32 82 1.0 2.0 0.00 0.00 0.00 82 1014.1
20260507072504 32 88 1.0 2.0 0.00 0.00 0.00 83 1014.3
20260507072000 32 89 2.0 2.0 0.00 0.00 0.00 82 1014.1
20260507071457 33 79 1.0 2.0 0.00 0.00 0.00 82 1014.1
20260507070954 32 89 1.0 2.0 0.00 0.00 0.00 83 1014.2
20260507070451 32 62 2.0 2.0 0.00 0.00 0.00 82 1014.1
20260507065948 32 53 2.0 2.0 0.00 0.00 0.00 83 1014.2
20260507065444 33 76 1.0 2.0 0.00 0.00 0.00 83 1014.4
20260507064942 33 78 1.0 2.0 0.00 0.00 0.00 81 1014.3
20260507064440 33 80 1.0 2.0 0.00 0.00 0.00 81 1014.4
20260507063937 33 78 2.0 2.0 0.00 0.00 0.00 80 1014.3
20260507063434 33 70 2.0 2.0 0.00 0.00 0.00 79 1014.5
20260507062931 33 41 2.0 2.0 0.00 0.00 0.00 78 1014.4
20260507062429 34 45 2.0 2.0 0.00 0.00 0.00 79 1014.7
20260507061926 34 60 2.0 3.0 0.00 0.00 0.00 79 1014.5
20260507061423 34 83 2.0 2.0 0.00 0.00 0.00 78 1014.5
20260507060922 34 87 2.0 2.0 0.00 0.00 0.00 78 1014.4
20260507060418 34 95 1.0 2.0 0.00 0.00 0.00 79 1014.3
20260507055915 34 51 2.0 2.0 0.00 0.00 0.00 78 1014.6
20260507055410 34 49 2.0 2.0 0.00 0.00 0.00 78 1014.4
20260507054908 34 59 1.0 2.0 0.00 0.00 0.00 77 1014.3
20260507054403 34 77 2.0 2.0 0.00 0.00 0.00 77 1014.5
20260507053901 34 84 1.0 2.0 0.00 0.00 0.00 75 1014.3
20260507053359 35 47 2.0 2.0 0.00 0.00 0.00 75 1014.3
20260507052857 35 56 2.0 2.0 0.00 0.00 0.00 74 1014.5
20260507052354 35 63 2.0 2.0 0.00 0.00 0.00 75 1014.6
20260507051851 35 60 2.0 2.0 0.00 0.00 0.00 74 1014.4
20260507051349 35 69 2.0 2.0 0.00 0.00 0.00 73 1014.6
20260507050845 35 76 1.0 2.0 0.00 0.00 0.00 72 1014.4
20260507050342 35 77 2.0 2.0 0.00 0.00 0.00 72 1014.5
20260507045838 36 86 2.0 2.0 0.00 0.00 0.00 70 1014.5
20260507045335 36 67 1.0 2.0 0.00 0.00 0.00 68 1014.5
20260507044832 36 68 1.0 2.0 0.00 0.00 0.00 67 1014.5
20260507044329 37 59 2.0 2.0 0.00 0.00 0.00 67 1014.5
20260507043825 37 77 1.0 2.0 0.00 0.00 0.00 66 1014.5
20260507043322 37 87 2.0 2.0 0.00 0.00 0.00 64 1014.5
20260507042818 37 77 2.0 2.0 0.00 0.00 0.00 66 1014.5
20260507042314 38 75 1.0 2.0 0.00 0.00 0.00 64 1014.5
20260507041811 38 74 2.0 2.0 0.00 0.00 0.00 61 1014.7
20260507041307 39 83 1.0 2.0 0.00 0.00 0.00 60 1014.5
20260507040805 39 84 2.0 2.0 0.00 0.00 0.00 62 1014.4
20260507040301 39 73 2.0 2.0 0.00 0.00 0.00 61 1014.3
20260507035756 39 74 2.0 2.0 0.00 0.00 0.00 61 1014.6
20260507035252 39 78 1.0 2.0 0.00 0.00 0.00 59 1014.6
20260507034750 40 52 2.0 2.0 0.00 0.00 0.00 59 1014.5
20260507034246 40 76 1.0 2.0 0.00 0.00 0.00 58 1014.6
20260507033745 41 58 2.0 2.0 0.00 0.00 0.00 55 1014.5
20260507033242 41 88 1.0 2.0 0.00 0.00 0.00 56 1014.7
20260507032739 41 46 2.0 2.0 0.00 0.00 0.00 54 1014.6
20260507032235 42 50 2.0 3.0 0.00 0.00 0.00 54 1014.7
20260507031732 42 55 2.0 2.0 0.00 0.00 0.00 53 1014.7
20260507031229 42 36 3.0 3.0 0.00 0.00 0.00 53 1014.5
20260507030726 43 65 2.0 2.0 0.00 0.00 0.00 53 1014.6
20260507030223 43 50 1.0 2.0 0.00 0.00 0.00 51 1014.5
20260507025720 44 34 1.0 2.0 0.00 0.00 0.00 50 1014.4
20260507025217 44 38 1.0 2.0 0.00 0.00 0.00 49 1014.3
20260507024715 44 269 0.0 2.0 0.00 0.00 0.00 49 1014.5
20260507024212 44 52 1.0 2.0 0.00 0.00 0.00 50 1014.6
20260507023707 44 34 2.0 2.0 0.00 0.00 0.00 51 1014.4
20260507023205 44 86 1.0 2.0 0.00 0.00 0.00 50 1014.3
20260507022702 44 53 0.0 2.0 0.00 0.00 0.00 48 1014.3
20260507022158 45 350 0.0 2.0 0.00 0.00 0.00 48 1014.4
20260507021654 45 347 1.0 2.0 0.00 0.00 0.00 47 1014.3
20260507021149 45 355 2.0 2.0 0.00 0.00 0.00 47 1014.3
20260507020648 45 333 0.0 2.0 0.00 0.00 0.00 47 1014.0
20260507020144 45 19 0.0 3.0 0.00 0.00 0.00 47 1013.9
20260507015643 46 333 0.0 3.0 0.00 0.00 0.00 46 1013.9
20260507015139 46 298 1.0 2.0 0.00 0.00 0.00 45 1013.9
20260507014636 46 313 2.0 2.0 0.00 0.00 0.00 45 1013.9
20260507014132 46 61 2.0 2.0 0.00 0.00 0.00 45 1014.0
20260507013629 46 326 0.0 0.0 0.00 0.00 0.00 45 1013.8
20260507013126 46 0 1.0 2.0 0.00 0.00 0.00 44 1013.8
20260507012623 46 320 3.0 4.0 0.00 0.00 0.00 44 1013.8
20260507012118 46 2 0.0 2.0 0.00 0.00 0.00 43 1013.8
20260507011617 47 269 1.0 3.0 0.00 0.00 0.00 42 1013.7
20260507011113 47 288 0.0 2.0 0.00 0.00 0.00 42 1013.9
20260507010608 47 31 2.0 3.0 0.00 0.00 0.00 42 1013.7
20260507010104 48 333 2.0 4.0 0.00 0.00 0.00 42 1013.5
20260507005602 48 259 2.0 5.0 0.00 0.00 0.00 42 1013.6
20260507005057 48 292 2.0 4.0 0.00 0.00 0.00 40 1013.4
20260507004555 48 281 4.0 4.0 0.00 0.00 0.00 41 1013.7
20260507004052 49 260 3.0 4.0 0.00 0.00 0.00 41 1013.5
20260507003548 49 176 0.0 3.0 0.00 0.00 0.00 41 1013.6
20260507003043 49 331 1.0 5.0 0.00 0.00 0.00 40 1013.5
20260507002540 49 267 2.0 4.0 0.00 0.00 0.00 41 1013.1
20260507002036 49 294 1.0 3.0 0.00 0.00 0.00 41 1013.4
20260507001533 50 283 2.0 5.0 0.00 0.00 0.00 40 1013.2
20260507001030 50 263 1.0 6.0 0.00 0.00 0.00 40 1013.4
20260507000526 50 330 3.0 6.0 0.00 0.00 0.00 39 1013.3
20260507000023 50 74 0.0 4.0 0.00 0.00 0.00 41 1013.0
20260506235520 50 121 0.0 4.0 0.00 0.00 0.00 41 1013.0
20260506235015 50 336 1.0 3.0 0.00 0.00 0.00 41 1013.0
20260506234513 51 213 1.0 5.0 0.00 0.00 0.00 40 1013.0
20260506234010 51 328 2.0 6.0 0.00 0.00 0.00 41 1012.8
20260506233506 51 8 0.0 14.0 0.00 0.00 0.00 40 1012.8
20260506233003 51 230 0.0 6.0 0.00 0.00 0.00 39 1012.8
20260506232459 51 274 6.0 11.0 0.00 0.00 0.00 39 1012.9
20260506231955 52 278 2.0 4.0 0.00 0.00 0.00 41 1012.8
20260506231453 52 238 3.0 9.0 0.00 0.00 0.00 39 1012.8
20260506230950 52 284 6.0 9.0 0.00 0.00 0.00 39 1012.7
20260506230446 52 302 4.0 9.0 0.00 0.00 0.00 39 1012.7
20260506225942 52 340 3.0 6.0 0.00 0.00 0.00 40 1012.6
20260506225440 53 319 3.0 4.0 0.00 0.00 0.00 41 1012.6
20260506224937 53 232 3.0 5.0 0.00 0.00 0.00 37 1012.3
20260506224434 53 269 2.0 4.0 0.00 0.00 0.00 38 1012.4
20260506223930 53 286 2.0 9.0 0.00 0.00 0.00 38 1012.5
20260506223426 53 280 4.0 5.0 0.00 0.00 0.00 38 1012.5
20260506222924 53 284 3.0 3.0 0.00 0.00 0.00 38 1012.4
20260506222420 53 297 2.0 3.0 0.00 0.00 0.00 38 1012.5
20260506221917 53 333 2.0 6.0 0.00 0.00 0.00 38 1012.2
20260506221414 53 348 2.0 2.0 0.00 0.00 0.00 40 1012.3
20260506220912 53 347 4.0 7.0 0.00 0.00 0.00 39 1012.2
20260506220407 54 169 2.0 5.0 0.00 0.00 0.00 37 1012.2
20260506215904 55 259 3.0 12.0 0.00 0.00 0.00 37 1012.0
20260506215400 56 249 3.0 6.0 0.00 0.00 0.00 34 1011.9
20260506214856 56 132 1.0 4.0 0.00 0.00 0.00 36 1011.8
20260506214352 55 303 3.0 5.0 0.00 0.00 0.00 37 1012.2
20260506213851 54 171 3.0 6.0 0.00 0.00 0.00 38 1012.0
20260506213348 53 19 4.0 5.0 0.00 0.00 0.00 38 1012.2
20260506212845 54 343 4.0 5.0 0.00 0.00 0.00 36 1012.2
20260506212341 54 323 3.0 7.0 0.00 0.00 0.00 38 1011.9
20260506211836 55 335 3.0 8.0 0.00 0.00 0.00 37 1012.0
20260506211332 56 352 4.0 5.0 0.00 0.00 0.00 37 1012.0
20260506210830 56 211 0.0 6.0 0.00 0.00 0.00 37 1012.2
20260506210326 56 256 4.0 10.0 0.00 0.00 0.00 36 1012.0
20260506205824 55 318 4.0 6.0 0.00 0.00 0.00 37 1011.7
20260506205320 55 326 5.0 5.0 0.00 0.00 0.00 37 1011.8
20260506204816 55 296 1.0 11.0 0.00 0.00 0.00 37 1011.6
20260506204314 54 313 3.0 5.0 0.00 0.00 0.00 36 1011.9
20260506203811 55 243 3.0 4.0 0.00 0.00 0.00 36 1012.0
20260506203309 56 237 5.0 5.0 0.00 0.00 0.00 36 1011.9
20260506202805 57 181 4.0 4.0 0.00 0.00 0.00 37 1011.7
20260506202305 57 172 2.0 4.0 0.00 0.00 0.00 35 1011.7
20260506201758 57 242 1.0 7.0 0.00 0.00 0.00 33 1011.9
20260506201256 56 277 2.0 6.0 0.00 0.00 0.00 34 1011.9
20260506200753 56 165 0.0 3.0 0.00 0.00 0.00 31 1012.0
20260506200249 56 215 0.0 4.0 0.00 0.00 0.00 33 1011.8
20260506195745 56 335 4.0 4.0 0.00 0.00 0.00 33 1012.0
20260506195242 57 177 1.0 6.0 0.00 0.00 0.00 31 1011.8
20260506194739 58 145 2.0 6.0 0.00 0.00 0.00 31 1012.0
20260506194235 58 283 2.0 5.0 0.00 0.00 0.00 32 1012.0
20260506193734 57 261 0.0 6.0 0.00 0.00 0.00 34 1012.3
20260506193230 57 266 3.0 3.0 0.00 0.00 0.00 32 1012.3
20260506192726 56 282 0.0 3.0 0.00 0.00 0.00 34 1011.9
20260506192223 56 178 2.0 6.0 0.00 0.00 0.00 34 1012.3
20260506191720 57 30 4.0 6.0 0.00 0.00 0.00 34 1012.3
20260506191216 57 143 1.0 5.0 0.00 0.00 0.00 34 1012.2
20260506190714 58 228 1.0 3.0 0.00 0.00 0.00 33 1012.3
20260506190210 58 215 0.0 5.0 0.00 0.00 0.00 31 1012.2
20260506185708 57 292 3.0 4.0 0.00 0.00 0.00 34 1012.2
20260506185203 58 194 2.0 6.0 0.00 0.00 0.00 34 1012.5
20260506184656 57 269 0.0 5.0 0.00 0.00 0.00 34 1012.6
20260506184153 55 86 0.0 3.0 0.00 0.00 0.00 39 1012.4
20260506183649 54 259 3.0 8.0 0.00 0.00 0.00 35 1012.5
20260506183145 55 258 1.0 6.0 0.00 0.00 0.00 35 1012.3
20260506182643 56 41 3.0 4.0 0.00 0.00 0.00 34 1012.3
20260506182139 56 262 4.0 6.0 0.00 0.00 0.00 34 1012.3
20260506181637 55 265 3.0 3.0 0.00 0.00 0.00 37 1012.5
20260506181134 55 294 4.0 10.0 0.00 0.00 0.00 35 1012.6
20260506180631 55 252 2.0 5.0 0.00 0.00 0.00 35 1012.8
20260506180127 55 279 2.0 5.0 0.00 0.00 0.00 35 1012.4
20260506175624 54 340 2.0 5.0 0.00 0.00 0.00 35 1012.4
20260506175120 54 245 2.0 2.0 0.00 0.00 0.00 36 1012.5
20260506174619 55 36 1.0 9.0 0.00 0.00 0.00 36 1012.7
20260506174115 56 126 0.0 7.0 0.00 0.00 0.00 34 1012.6
20260506173613 55 263 1.0 2.0 0.00 0.00 0.00 33 1012.6
20260506173109 56 294 2.0 9.0 0.00 0.00 0.00 32 1012.6
20260506172607 57 238 2.0 3.0 0.00 0.00 0.00 32 1012.7
20260506172103 55 316 2.0 5.0 0.00 0.00 0.00 37 1012.8
20260506171601 55 56 4.0 4.0 0.00 0.00 0.00 39 1012.7
20260506171058 54 211 2.0 6.0 0.00 0.00 0.00 34 1012.7
20260506170555 55 293 4.0 6.0 0.00 0.00 0.00 33 1012.7
20260506170053 55 294 6.0 6.0 0.00 0.00 0.00 33 1013.1
20260506165551 55 251 0.0 6.0 0.00 0.00 0.00 36 1013.1
20260506165047 55 221 1.0 2.0 0.00 0.00 0.00 36 1013.0
20260506164544 55 271 3.0 6.0 0.00 0.00 0.00 35 1012.8
20260506164042 55 95 2.0 2.0 0.00 0.00 0.00 38 1012.6
20260506163537 56 258 0.0 6.0 0.00 0.00 0.00 33 1012.8
20260506163033 56 153 1.0 3.0 0.00 0.00 0.00 37 1012.9
20260506162530 56 296 0.0 4.0 0.00 0.00 0.00 37 1013.0
20260506162027 55 161 2.0 5.0 0.00 0.00 0.00 37 1012.8
20260506161525 54 209 1.0 4.0 0.00 0.00 0.00 36 1012.7
20260506161021 53 264 2.0 4.0 0.00 0.00 0.00 37 1012.9
20260506160519 53 328 1.0 3.0 0.00 0.00 0.00 35 1012.7
20260506160016 54 171 0.0 3.0 0.00 0.00 0.00 35 1012.7
20260506155514 56 143 0.0 2.0 0.00 0.00 0.00 35 1012.7
20260506153646 53 91 0.0 4.0 0.00 0.00 0.00 39 1013.0
20260506153143 53 297 0.0 4.0 0.00 0.00 0.00 36 1012.8
20260506152639 53 132 0.0 2.0 0.00 0.00 0.00 41 1012.5
20260506152137 53 53 6.0 6.0 0.00 0.00 0.00 41 1013.0
20260506151636 53 329 0.0 3.0 0.00 0.00 0.00 41 1013.0
20260506151132 53 310 1.0 4.0 0.00 0.00 0.00 40 1012.8
20260506150629 53 110 0.0 3.0 0.00 0.00 0.00 43 1013.1
20260506150126 53 236 2.0 3.0 0.00 0.00 0.00 42 1013.0
20260506145623 53 284 3.0 3.0 0.00 0.00 0.00 40 1013.0
20260506145120 53 145 1.0 3.0 0.00 0.00 0.00 43 1013.0
20260506144617 53 283 4.0 4.0 0.00 0.00 0.00 39 1012.8
20260506144114 54 6 2.0 5.0 0.00 0.00 0.00 37 1013.2
20260506143612 53 89 0.0 4.0 0.00 0.00 0.00 42 1013.0
20260506143109 52 272 0.0 3.0 0.00 0.00 0.00 41 1013.2
20260506142607 51 282 2.0 2.0 0.00 0.00 0.00 41 1013.0
20260506142105 51 259 2.0 4.0 0.00 0.00 0.00 39 1013.0
20260506141602 51 37 0.0 2.0 0.00 0.00 0.00 42 1013.0
20260506141101 52 276 2.0 2.0 0.00 0.00 0.00 40 1012.9
20260506140558 53 271 3.0 3.0 0.00 0.00 0.00 40 1013.0
20260506140055 52 274 2.0 2.0 0.00 0.00 0.00 38 1012.8
20260506135552 51 309 2.0 2.0 0.00 0.00 0.00 42 1012.8
20260506135048 51 290 2.0 4.0 0.00 0.00 0.00 44 1012.8
20260506134545 52 334 2.0 2.0 0.00 0.00 0.00 42 1012.8
20260506134040 53 60 0.0 3.0 0.00 0.00 0.00 41 1012.6
20260506133538 52 115 0.0 2.0 0.00 0.00 0.00 43 1012.6
20260506133035 51 147 0.0 1.0 0.00 0.00 0.00 41 1012.4
20260506132532 51 55 0.0 1.0 0.00 0.00 0.00 44 1012.0
20260506132029 51 55 0.0 1.0 0.00 0.00 0.00 45 1012.3
20260506131526 51 55 0.0 2.0 0.00 0.00 0.00 47 1012.4
20260506131023 52 333 1.0 2.0 0.00 0.00 0.00 46 1012.3
20260506130519 52 330 0.0 1.0 0.00 0.00 0.00 48 1012.3
20260506130017 52 332 1.0 2.0 0.00 0.00 0.00 51 1012.2
20260506125515 52 48 1.0 2.0 0.00 0.00 0.00 52 1012.2
20260506125013 51 83 1.0 2.0 0.00 0.00 0.00 55 1011.9
20260506124510 51 41 1.0 2.0 0.00 0.00 0.00 56 1012.0
20260506124008 51 55 1.0 2.0 0.00 0.00 0.00 56 1011.9
20260506123506 52 67 2.0 2.0 0.00 0.00 0.00 55 1011.9
20260506123004 50 70 2.0 2.0 0.00 0.00 0.00 63 1011.9
20260506122500 47 93 2.0 2.0 0.00 0.00 0.00 68 1011.8
20260506121958 44 73 2.0 2.0 0.00 0.00 0.00 71 1011.8
20260506121455 44 56 2.0 2.0 0.00 0.00 0.00 72 1011.7
20260506120952 42 78 2.0 2.0 0.00 0.00 0.00 74 1011.5
20260506120449 42 86 2.0 2.0 0.00 0.00 0.00 76 1011.6
20260506115946 42 98 1.0 2.0 0.00 0.00 0.00 80 1011.3
20260506115445 40 78 2.0 3.0 0.00 0.00 0.00 87 1011.3
20260506114943 37 64 2.0 2.0 0.00 0.00 0.00 93 1011.3
20260506114440 35 81 2.0 2.0 0.00 0.00 0.00 93 1011.5
20260506113938 34 72 2.0 2.0 0.00 0.00 0.00 93 1011.4
20260506113436 34 72 2.0 2.0 0.00 0.00 0.00 93 1011.5
20260506112932 34 66 2.0 2.0 0.00 0.00 0.00 93 1011.4
20260506112430 34 62 2.0 2.0 0.00 0.00 0.00 92 1011.2
20260506111927 33 60 2.0 2.0 0.00 0.00 0.00 92 1011.4
20260506111425 33 61 2.0 2.0 0.00 0.00 0.00 91 1011.5
20260506110922 33 54 2.0 2.0 0.00 0.00 0.00 91 1011.4
20260506110420 33 62 2.0 2.0 0.00 0.00 0.00 91 1011.4
20260506105916 33 82 1.0 2.0 0.00 0.00 0.00 90 1011.2
20260506105412 33 85 1.0 2.0 0.00 0.00 0.00 90 1011.4
20260506104909 33 57 2.0 2.0 0.00 0.00 0.00 89 1011.0
20260506104407 33 73 1.0 2.0 0.00 0.00 0.00 88 1011.2
20260506103905 33 68 1.0 2.0 0.00 0.00 0.00 88 1010.9
20260506103402 34 72 2.0 2.0 0.00 0.00 0.00 88 1010.7
20260506102859 34 73 1.0 2.0 0.00 0.00 0.00 88 1010.8
20260506102357 34 68 2.0 2.0 0.00 0.00 0.00 88 1010.7
20260506101854 34 61 2.0 2.0 0.00 0.00 0.00 88 1010.5
20260506101350 35 67 2.0 2.0 0.00 0.00 0.00 87 1010.6
20260506100848 35 81 1.0 2.0 0.00 0.00 0.00 87 1010.4
20260506100346 35 73 1.0 2.0 0.00 0.00 0.00 86 1010.7
20260506095844 35 74 2.0 2.0 0.00 0.00 0.00 86 1010.6
20260506095341 35 78 1.0 2.0 0.00 0.00 0.00 85 1010.7
20260506094838 35 79 2.0 2.0 0.00 0.00 0.00 85 1010.8
20260506094337 35 83 1.0 1.0 0.00 0.00 0.00 86 1010.7
20260506093834 35 83 1.0 2.0 0.00 0.00 0.00 85 1010.5
20260506093331 35 63 1.0 2.0 0.00 0.00 0.00 85 1010.6
20260506092829 35 53 2.0 2.0 0.00 0.00 0.00 85 1010.5
20260506092327 35 51 2.0 2.0 0.00 0.00 0.00 85 1010.6
20260506091818 35 52 2.0 2.0 0.00 0.00 0.00 86 1010.4
20260506091315 35 51 2.0 2.0 0.00 0.00 0.00 85 1010.7
20260506090813 35 70 1.0 2.0 0.00 0.00 0.00 84 1010.7